Simultaneous Nadir Overpasses (SNOs) Predictions

Prediction of SNOs between GOES-15 and NPP Satellite Orbit:

Table of predicted SNOs for the next 14.0 days since TLE Epoch: 2/3/2024
Index Date Time (GOES-15) GOES-15 Lat,Lon NPP Lat,Lon Distance(km) Time Diff (sec)
1 02/03/2024 20:59:48 -0.03, 61.57 -1.02, 65.91 495.94 80
2 02/05/2024 09:21:43 0.02, 61.64 -0.21, 60.62 115.61 80
3 02/06/2024 09:05:37 -0.02, 61.63 0.77, 65.16 402.99 80
4 02/07/2024 21:27:26 0.01, 61.53 0.37, 59.88 186.80 80
5 02/08/2024 21:06:01 0.01, 61.52 -0.67, 64.41 330.09 80
6 02/10/2024 09:27:57 -0.01, 61.60 -0.55, 59.12 283.13 80
7 02/11/2024 09:11:51 -0.00, 61.60 0.43, 63.66 234.13 80
8 02/12/2024 21:33:39 0.00, 61.49 0.70, 58.38 355.25 80
9 02/13/2024 21:12:15 0.00, 61.49 -0.34, 62.90 161.66 80
10 02/15/2024 09:34:09 -0.00, 61.58 -0.92, 57.62 452.29 80
11 02/16/2024 09:18:05 -0.00, 61.58 0.13, 62.14 64.53 80
